1509051600.96,21184,12.75,73758.5,-2.23,-27.51,-28.25,0,*51
1509051602.25,21185,12.75,73764.3,-2.21,-26.93,-27.39,0,*5F
1509051603.53,21186,12.75,73750.5,-2.21,-26.77,-27.45,0,*5D
1509051604.75,21187,12.75,73758.5,-2.19,-27.23,-27.93,0,*5C
1509051605.98,21188,12.75,73766.5,-2.19,-27.23,-27.93,0,*53
1509051607.19,21189,12.75,73766.5,-2.19,-27.07,-27.71,0,*58
1509051608.39,21190,12.75,73774.8,-2.19,-27.29,-27.93,0,*50
1509051609.65,21191,12.75,73776.8,-2.19,-27.45,-28.21,0,*5D
1509051610.88,21192,12.75,73772.8,-2.19,-27.71,-28.43,0,*5D
1509051612.11,21193,12.75,73776.3,-2.19,-27.77,-28.47,0,*5E
1509051613.33,21194,12.75,73778.0,-2.19,-27.89,-28.47,0,*58
1509051614.56,21195,12.75,73772.8,-2.19,-27.93,-28.59,0,*5D
1509051615.8,21196,12.69,73770.0,-2.19,-27.89,-28.63,0,*5C
1509051617.03,21197,12.75,73772.0,-2.19,-27.93,-28.63,0,*56
1509051618.27,21198,12.75,73772.8,-2.23,-27.93,-28.63,0,*50
1509051619.53,21199,12.75,73770.5,-2.21,-27.89,-28.59,0,*51
1509051620.79,21200,12.75,73770.8,-2.23,-27.99,-28.63,0,*58
1509051622.05,21201,12.75,73770.0,-2.23,-28.09,-28.79,0,*54
1509051623.28,21202,12.75,73766.3,-2.23,-28.15,-28.79,0,*5A
1509051624.51,21203,12.75,73766.0,-2.23,-28.09,-28.97,0,*56
1509051625.71,21204,12.75,73770.0,-2.27,-28.15,-28.97,0,*58
1509051626.93,21205,12.75,73768.5,-2.27,-28.15,-28.85,0,*5A
1509051628.17,21206,12.75,73772.3,-2.27,-28.25,-28.85,0,*5A
1509051629.4,21207,12.75,73774.8,-2.27,-28.31,-29.01,0,*53
1509051630.61,21208,12.75,73774.3,-2.27,-28.15,-28.85,0,*57
1509051631.85,21209,12.69,73768.5,-2.27,-27.93,-28.63,0,*5F
1509051633.14,21210,12.75,73762.8,-2.29,-27.99,-28.59,0,*5A
1509051634.42,21211,12.75,73754.0,-2.29,-27.99,-28.59,0,*5B
1509051635.68,21212,12.75,73750.8,-2.29,-27.89,-28.59,0,*59
1509051636.96,21213,12.75,73758.5,-2.29,-27.99,-28.59,0,*59
1509051638.25,21214,12.75,73774.0,-2.29,-27.99,-28.59,0,*5E
1509051639.48,21215,12.75,73774.8,-2.29,-28.15,-28.69,0,*57
1509051640.73,21216,12.75,73778.0,-2.29,-28.15,-28.75,0,*59
1509051641.99,21217,12.75,73778.0,-2.29,-28.15,-28.75,0,*58
1509051643.25,21218,12.75,73768.5,-2.29,-28.05,-28.69,0,*5B
1509051644.49,21219,12.75,73766.0,-2.31,-28.05,-28.69,0,*53
1509051645.77,21220,12.75,73762.8,-2.33,-28.09,-28.75,0,*5A
1509051646.98,21221,12.69,73762.8,-2.31,-28.15,-28.69,0,*59
1509051648.22,21222,12.75,73766.3,-2.31,-27.99,-28.69,0,*51
1509051649.5,21223,12.75,73764.3,-2.33,-28.09,-28.75,0,*59
1509051650.78,21224,12.75,73762.8,-2.33,-28.05,-28.75,0,*52
1509051652.07,21225,12.75,73768.0,-2.33,-28.09,-28.63,0,*58
1509051653.3,21226,12.75,73762.8,-2.35,-27.35,-27.77,0,*57
1509051654.54,21227,12.75,73756.5,-2.35,-27.23,-27.89,0,*50
1509051655.77,21228,12.69,73758.5,-2.33,-27.71,-28.37,0,*54
1509051656.99,21229,12.69,73762.3,-2.31,-27.71,-28.37,0,*57
1509051658.25,21230,12.75,73764.3,-2.33,-27.77,-28.43,0,*58
1509051659.51,21231,12.75,73766.0,-2.33,-27.89,-28.25,0,*58
1509051660.78,21232,12.75,73770.0,-2.33,-27.77,-28.25,0,*5A
1509051662.03,21233,12.75,73764.5,-2.33,-27.89,-28.43,0,*5A
1509051663.29,21234,12.75,73770.0,-2.33,-27.93,-28.43,0,*56
1509051664.56,21235,12.75,73764.8,-2.33,-28.05,-28.37,0,*54
1509051665.79,21236,12.69,73760.3,-2.35,-27.39,-27.77,0,*5A
1509051667.02,21237,12.75,73762.8,-2.35,-27.39,-27.93,0,*51
1509051668.26,21238,12.75,73766.8,-2.35,-27.55,-28.05,0,*54
1509051669.5,21239,12.75,73766.5,-2.35,-27.71,-28.21,0,*55
1509051670.74,21240,12.75,73772.0,-2.35,-27.71,-28.09,0,*51
1509051671.97,21241,12.75,73756.8,-2.35,-27.45,-27.93,0,*5B
1509051673.2,21242,12.69,73762.5,-2.35,-27.45,-27.77,0,*52
1509051674.44,21243,12.75,73766.5,-2.35,-27.45,-27.89,0,*52
1509051675.68,21244,12.75,73772.0,-2.35,-27.45,-27.77,0,*54
1509051676.91,21245,12.75,73762.8,-2.35,-27.23,-27.55,0,*55
1509051678.2,21246,12.75,73764.8,-2.33,-26.77,-27.19,0,*58
1509051679.44,21247,12.75,73756.3,-2.33,-26.39,-26.87,0,*55
1509051680.7,21248,12.75,73756.0,-2.31,-26.13,-26.55,0,*5F
1509051681.94,21249,12.75,73756.3,-2.31,-26.17,-26.49,0,*57
1509051683.21,21250,12.75,73762.8,-2.31,-25.97,-26.33,0,*59
1509051684.43,21251,12.75,73760.8,-2.29,-26.23,-26.65,0,*5E
1509051685.67,21252,12.69,73760.0,-2.27,-26.29,-26.65,0,*59
1509051686.91,21253,12.75,73764.3,-2.27,-26.61,-26.77,0,*57
1509051688.15,21254,12.75,73764.0,-2.27,-26.81,-27.13,0,*5D
1509051689.38,21255,12.75,73756.5,-2.23,-27.13,-27.61,0,*57
1509051690.62,21256,12.75,73758.0,-2.23,-27.29,-27.61,0,*5D
1509051691.86,21257,12.75,73750.8,-2.23,-27.13,-27.35,0,*54
1509051693.07,21258,12.75,73744.3,-2.23,-27.29,-27.77,0,*54
1509051694.31,21259,12.75,73734.0,-2.23,-27.45,-27.77,0,*5F
1509051695.51,21260,12.75,73744.8,-2.23,-27.51,-27.93,0,*5A
1509051696.76,21261,12.75,73738.0,-2.23,-27.61,-27.77,0,*52
1509051697.99,21262,12.75,73740.5,-2.23,-27.67,-27.83,0,*5C
1509051699.23,21263,12.75,73738.3,-2.27,-27.45,-27.67,0,*53
1509051700.47,21264,12.75,73740.8,-2.27,-27.61,-27.77,0,*53
1509051701.72,21265,12.75,73752.8,-2.27,-27.61,-27.93,0,*58
1509051702.97,21266,12.75,73748.8,-2.29,-27.55,-27.83,0,*53
1509051704.24,21267,12.69,73742.3,-2.27,-27.61,-27.83,0,*5B
1509051705.48,21268,12.75,73744.3,-2.27,-27.13,-27.35,0,*5C
1509051706.7,21269,12.75,73750.0,-2.27,-27.13,-27.45,0,*5A
1509051707.96,21270,12.69,73754.0,-2.27,-27.23,-27.45,0,*51
1509051709.22,21271,12.75,73750.5,-2.29,-27.39,-27.71,0,*52
1509051710.45,21272,12.75,73748.0,-2.27,-27.23,-27.51,0,*56
1509051711.68,21273,12.75,73748.0,-2.29,-27.51,-27.71,0,*5E
1509051712.92,21274,12.75,73758.5,-2.27,-27.45,-27.67,0,*55
1509051714.14,21275,12.75,73754.0,-2.27,-27.51,-27.67,0,*51
1509051715.35,21276,12.69,73744.3,-2.27,-27.51,-27.67,0,*52
1509051716.59,21277,12.75,73754.5,-2.23,-27.45,-27.51,0,*57
1509051717.83,21278,12.75,73756.5,-2.27,-27.45,-27.67,0,*59
1509051719.06,21279,12.75,73756.8,-2.23,-27.51,-27.83,0,*53
1509051720.3,21280,12.75,73752.8,-2.23,-27.61,-27.93,0,*57
1509051721.54,21281,12.75,73756.5,-2.27,-27.77,-27.83,0,*54
1509051722.79,21282,12.75,73762.0,-2.29,-27.71,-27.83,0,*5F
1509051724.08,21283,12.75,73762.3,-2.29,-27.83,-27.99,0,*58
1509051725.29,21284,12.75,73754.5,-2.27,-27.93,-27.93,0,*5A
1509051726.55,21285,12.75,73758.0,-2.27,-27.99,-28.09,0,*5D
1509051727.8,21286,12.75,73742.3,-2.29,-27.83,-27.67,0,*5C
1509051729.04,21287,12.75,73730.8,-2.29,-27.71,-27.71,0,*57
1509051730.27,21288,12.75,73750.3,-2.29,-27.55,-27.67,0,*59
1509051731.51,21289,12.75,73738.5,-2.27,-27.45,-27.51,0,*52
1509051732.74,21290,12.75,73740.8,-2.29,-27.51,-27.55,0,*55
1509051733.98,21291,12.75,73746.3,-2.29,-27.51,-27.67,0,*55
1509051735.24,21292,12.75,73744.0,-2.29,-27.29,-27.19,0,*50
1509051736.49,21293,12.75,73750.3,-2.29,-27.19,-27.13,0,*58
1509051737.75,21294,12.69,73752.3,-2.29,-27.03,-26.97,0,*59
1509051739.01,21295,12.69,73754.3,-2.29,-26.55,-26.49,0,*59
1509051740.28,21296,12.75,73758.0,-2.27,-26.33,-26.33,0,*59
1509051741.49,21297,12.75,73756.3,-2.27,-26.65,-26.65,0,*58
1509051742.76,21298,12.69,73758.0,-2.27,-26.77,-26.77,0,*57
1509051744.0,21299,12.75,73752.5,-2.27,-27.07,-26.97,0,*5E
1509051745.24,21300,12.75,73756.0,-2.27,-27.61,-27.51,0,*54
1509051746.48,21301,12.75,73758.5,-2.27,-27.67,-27.61,0,*50
1509051747.73,21302,12.75,73752.8,-2.23,-27.61,-27.51,0,*52
1509051748.99,21303,12.75,73762.0,-2.23,-27.61,-27.45,0,*56
1509051750.22,21304,12.75,73758.0,-2.27,-27.51,-27.45,0,*56
1509051751.45,21305,12.69,73782.5,-2.23,-27.51,-27.45,0,*53
1509051752.71,21306,12.75,73770.8,-2.27,-27.39,-27.35,0,*5D
1509051753.94,21307,12.75,73770.5,-2.27,-27.35,-27.13,0,*54
1509051755.22,21308,12.75,73764.0,-2.29,-27.19,-26.97,0,*56
1509051756.48,21309,12.75,73770.0,-2.29,-26.97,-26.65,0,*5D
1509051757.77,21310,12.69,73766.3,-2.29,-26.97,-26.71,0,*50
1509051759.01,21311,12.75,73766.8,-2.27,-26.45,-26.29,0,*5D
1509051760.25,21312,12.75,73766.8,-2.27,-25.81,-25.61,0,*5A
1509051761.49,21313,12.75,73766.8,-2.23,-26.45,-25.97,0,*5D
1509051762.73,21314,12.75,73748.3,-2.23,-26.77,-26.49,0,*5B
1509051763.96,21315,12.75,73742.8,-2.21,-26.87,-26.45,0,*5B
1509051765.2,21316,12.75,73756.5,-2.23,-26.97,-26.65,0,*59
1509051766.46,21317,12.75,73758.3,-2.21,-26.93,-26.61,0,*5A
1509051767.72,21318,12.75,73764.5,-2.21,-27.07,-26.77,0,*5E
1509051768.98,21319,12.75,73756.3,-2.21,-27.03,-26.71,0,*5D
1509051770.24,21320,12.75,73754.3,-2.21,-26.93,-26.61,0,*5E
1509051771.5,21321,12.75,73752.5,-2.21,-26.93,-26.61,0,*5F
1509051772.76,21322,12.75,73754.3,-2.21,-27.07,-26.77,0,*57
1509051774.01,21323,12.75,73752.5,-2.21,-27.19,-26.87,0,*56
1509051775.27,21324,12.75,73768.3,-2.21,-27.23,-26.87,0,*58
1509051776.54,21325,12.75,73760.8,-2.21,-27.19,-26.93,0,*55
1509051777.8,21326,12.75,73764.0,-2.21,-27.07,-26.71,0,*55
1509051779.04,21327,12.75,73768.0,-2.21,-27.07,-26.61,0,*55
1509051780.28,21328,12.75,73768.8,-2.21,-26.39,-26.03,0,*52
1509051781.54,21329,12.75,73772.0,-2.21,-26.29,-25.91,0,*5A
1509051782.76,21330,12.75,73776.8,-2.23,-26.07,-25.49,0,*59
1509051784.04,21331,12.75,73768.8,-2.21,-25.75,-25.45,0,*50
1509051785.3,21332,12.75,73772.8,-2.17,-26.07,-25.71,0,*57
1509051786.59,21333,12.75,73764.3,-2.17,-26.17,-25.81,0,*58
1509051787.84,21334,12.75,73772.3,-2.17,-26.55,-26.07,0,*54
1509051789.08,21335,12.69,73764.0,-2.17,-26.39,-26.03,0,*5B
1509051790.31,21336,12.75,73782.3,-2.17,-26.65,-26.07,0,*55
1509051791.57,21337,12.75,73766.0,-2.17,-26.39,-25.97,0,*57
1509051792.82,21338,12.75,73752.5,-2.17,-26.55,-26.23,0,*5E
1509051794.05,21339,12.75,73764.3,-2.17,-27.03,-26.49,0,*51
1509051795.31,21340,12.75,73764.8,-2.17,-26.97,-26.49,0,*53
1509051796.6,21341,12.75,73760.5,-2.13,-26.81,-26.29,0,*57
1509051797.85,21342,12.75,73758.5,-2.17,-27.03,-26.55,0,*50
1509051799.07,21343,12.75,73766.5,-2.17,-27.03,-26.49,0,*5C
1509051800.32,21344,12.75,73766.3,-2.17,-26.87,-26.55,0,*5B
1509051801.61,21345,12.75,73770.0,-2.17,-26.81,-26.33,0,*5C
1509051802.87,21346,12.75,73768.8,-2.17,-26.39,-25.97,0,*51
1509051804.1,21347,12.75,73776.8,-2.17,-26.39,-25.87,0,*51
1509051805.36,21348,12.75,73778.8,-2.17,-26.39,-25.97,0,*5F
1509051806.59,21349,12.75,73774.5,-2.17,-26.23,-25.87,0,*54
1509051807.84,21350,12.75,73780.0,-2.17,-26.23,-25.71,0,*55
1509051809.08,21351,12.75,73776.8,-2.19,-26.07,-25.55,0,*5A
1509051810.29,21352,12.75,73776.8,-2.15,-25.65,-25.09,0,*5B
1509051811.53,21353,12.69,73776.5,-2.13,-25.49,-25.13,0,*59
1509051812.76,21354,12.75,73778.8,-2.11,-25.39,-24.93,0,*52
1509051813.98,21355,12.75,73782.8,-2.11,-25.39,-24.93,0,*53
1509051815.19,21356,12.75,73778.0,-2.09,-25.61,-25.13,0,*5D
1509051816.39,21357,12.75,73768.8,-2.09,-25.91,-25.23,0,*50
1509051817.62,21358,12.75,73768.8,-2.11,-25.09,-24.61,0,*50
1509051818.82,21359,12.75,73770.3,-2.09,-25.09,-24.57,0,*5D
1509051820.05,21360,12.75,73768.5,-2.09,-25.61,-24.87,0,*54
1509051821.29,21361,12.75,73766.5,-2.09,-26.07,-25.71,0,*5E
1509051822.53,21362,12.75,73760.0,-2.07,-26.49,-25.91,0,*57
1509051823.78,21363,12.75,73758.3,-2.07,-26.55,-26.07,0,*57
1509051825.03,21364,12.75,73760.0,-2.07,-26.65,-26.03,0,*57
1509051826.31,21365,12.75,73762.3,-2.07,-26.71,-26.17,0,*56
1509051827.58,21366,12.75,73760.8,-2.07,-26.65,-26.17,0,*50
1509051828.81,21367,12.75,73760.0,-2.09,-26.61,-26.13,0,*5F
1509051830.04,21368,12.75,73764.5,-2.09,-26.55,-26.07,0,*52
1509051831.27,21369,12.75,73760.3,-2.09,-26.55,-26.07,0,*53
1509051832.5,21370,12.75,73770.5,-2.09,-26.55,-26.07,0,*5B
1509051833.74,21371,12.69,73766.3,-2.09,-25.97,-25.61,0,*54
1509051835.0,21372,12.75,73776.8,-2.07,-25.55,-25.19,0,*58
1509051836.23,21373,12.75,73774.3,-2.09,-25.61,-25.29,0,*53
1509051837.49,21374,12.75,73774.5,-2.07,-25.23,-24.87,0,*59
1509051838.76,21375,12.75,73774.3,-2.07,-25.55,-25.19,0,*5F
1509051840.01,21376,12.75,73774.8,-2.07,-25.39,-25.03,0,*5D
1509051841.25,21377,12.75,73770.5,-2.07,-25.49,-25.19,0,*50
1509051842.47,21378,12.75,73772.8,-2.05,-25.49,-25.09,0,*5C
1509051843.73,21379,12.75,73772.5,-2.05,-26.17,-25.81,0,*55
1509051844.97,21380,12.75,73764.5,-2.05,-26.33,-25.91,0,*54
1509051846.2,21381,12.75,73770.8,-2.05,-26.71,-26.23,0,*59
1509051847.46,21382,12.75,73768.3,-2.05,-26.71,-26.33,0,*5B
1509051848.68,21383,12.69,73764.0,-2.07,-26.87,-26.49,0,*5C
1509051849.91,21384,12.75,73764.5,-2.07,-26.87,-26.49,0,*5B
1509051851.2,21385,12.75,73762.0,-2.07,-26.97,-26.55,0,*56
1509051852.47,21386,12.75,73762.8,-2.07,-26.97,-26.65,0,*56
1509051853.7,21387,12.75,73756.0,-2.11,-27.07,-26.87,0,*54
1509051854.98,21388,12.75,73754.5,-2.11,-27.23,-26.93,0,*58
1509051856.26,21389,12.69,73756.0,-2.11,-27.23,-26.93,0,*59
1509051857.49,21390,12.75,73758.8,-2.11,-27.03,-26.61,0,*5E
1509051858.73,21391,12.75,73758.3,-2.15,-27.07,-26.81,0,*51
1509051860.02,21392,12.75,73758.5,-2.13,-26.33,-26.13,0,*59
1509051861.24,21393,12.75,73748.0,-2.15,-26.65,-26.39,0,*55
1509051862.51,21394,12.75,73740.0,-2.15,-26.97,-26.71,0,*53
1509051863.77,21395,12.75,73748.5,-2.15,-26.97,-26.81,0,*5D
1509051864.98,21396,12.75,73750.3,-2.15,-26.87,-26.65,0,*55
1509051866.24,21397,12.75,73752.5,-2.17,-26.97,-26.65,0,*57
1509051867.5,21398,12.75,73748.3,-2.17,-26.97,-26.87,0,*54
1509051868.73,21399,12.75,73750.3,-2.19,-26.81,-26.61,0,*54
1509051869.99,21400,12.75,73758.5,-2.17,-26.81,-26.65,0,*59
1509051871.25,21401,12.75,73756.5,-2.17,-26.65,-26.55,0,*51
1509051872.5,21402,12.75,73752.8,-2.17,-26.71,-26.49,0,*5A
1509051873.75,21403,12.75,73754.8,-2.19,-26.55,-26.55,0,*5E
1509051874.97,21404,12.75,73752.3,-2.19,-26.55,-26.45,0,*58
1509051876.17,21405,12.75,73754.3,-2.19,-26.23,-26.23,0,*58
1509051877.43,21406,12.75,73750.8,-2.19,-26.29,-26.29,0,*5B
1509051878.66,21407,12.75,73760.0,-2.21,-25.91,-25.87,0,*56
1509051879.89,21408,12.75,73764.8,-2.21,-25.39,-25.39,0,*5E
1509051881.18,21409,12.75,73754.5,-2.21,-25.75,-25.75,0,*5F
1509051882.47,21410,12.75,73750.3,-2.21,-26.13,-26.29,0,*5E
1509051883.7,21411,12.75,73744.0,-2.21,-26.45,-26.45,0,*56
1509051884.94,21412,12.75,73744.5,-2.21,-26.39,-26.45,0,*5E
1509051886.19,21413,12.75,73722.8,-2.21,-26.45,-26.55,0,*55
1509051887.45,21414,12.75,73734.0,-2.21,-26.39,-26.55,0,*59
1509051888.66,21415,12.75,73738.3,-2.23,-26.45,-26.65,0,*52
1509051889.92,21416,12.75,73742.5,-2.21,-26.29,-26.45,0,*5B
1509051891.15,21417,12.75,73738.5,-2.23,-26.17,-26.45,0,*55
1509051892.39,21418,12.75,73738.3,-2.23,-26.13,-26.45,0,*5E
1509051893.62,21419,12.75,73738.8,-2.23,-26.29,-26.49,0,*5A
1509051894.85,21420,12.75,73742.5,-2.23,-26.29,-26.45,0,*5C
1509051896.1,21421,12.75,73742.8,-2.23,-26.33,-26.61,0,*50
1509051897.33,21422,12.75,73742.8,-2.23,-26.29,-26.61,0,*58
1509051898.57,21423,12.75,73742.3,-2.27,-26.17,-26.45,0,*56
1509051899.83,21424,12.75,73742.5,-2.29,-26.13,-26.39,0,*50
1509051901.07,21425,12.75,73754.3,-2.27,-25.29,-25.65,0,*5F
1509051902.3,21426,12.75,73754.0,-2.27,-24.97,-25.29,0,*50
1509051903.51,21427,12.75,73762.5,-2.27,-25.19,-25.61,0,*5A
1509051904.72,21428,12.75,73756.3,-2.27,-24.93,-25.49,0,*5C
1509051905.94,21429,12.75,73748.3,-2.27,-24.47,-24.93,0,*52
1509051907.17,21430,12.75,73744.8,-2.21,-24.57,-24.93,0,*5D
1509051908.41,21431,12.75,73748.5,-2.21,-24.61,-25.23,0,*53
1509051909.67,21432,12.75,73740.5,-2.21,-25.23,-25.75,0,*54
1509051910.93,21433,12.75,73746.0,-2.21,-25.55,-26.07,0,*52
1509051912.19,21434,12.75,73736.0,-2.21,-25.55,-26.23,0,*53
1509051913.45,21435,12.75,73736.3,-2.21,-25.55,-26.23,0,*52
1509051914.71,21436,12.75,73732.0,-2.21,-25.61,-26.29,0,*5C
1509051915.98,21437,12.75,73748.5,-2.21,-25.71,-26.45,0,*56
1509051917.19,21438,12.75,73750.5,-2.23,-26.07,-26.65,0,*5B
1509051918.44,21439,12.75,73752.0,-2.21,-25.87,-26.55,0,*50
1509051919.68,21440,12.75,73766.3,-2.23,-25.81,-26.49,0,*57
1509051920.94,21441,12.75,73758.0,-2.23,-26.13,-26.97,0,*5D
1509051922.18,21442,12.75,73752.0,-2.23,-26.49,-27.23,0,*5F
1509051923.39,21443,12.75,73752.3,-2.23,-26.07,-26.65,0,*57
1509051924.62,21444,12.75,73746.5,-2.23,-25.75,-26.49,0,*58
1509051925.88,21445,12.75,73746.5,-2.27,-25.97,-26.77,0,*5C
1509051927.17,21446,12.75,73738.8,-2.29,-26.13,-26.81,0,*57
1509051928.41,21447,12.75,73736.0,-2.29,-26.03,-26.87,0,*51
1509051929.65,21448,12.75,73736.3,-2.29,-26.03,-26.87,0,*5E
1509051930.94,21449,12.75,73730.8,-2.29,-25.97,-26.81,0,*57
1509051932.2,21450,12.75,73756.3,-2.29,-25.87,-26.81,0,*5E
1509051933.46,21451,12.75,73752.3,-2.27,-25.81,-26.77,0,*5E
1509051934.75,21452,12.75,73756.0,-2.29,-25.81,-26.81,0,*5A
1509051936.01,21453,12.75,73756.0,-2.31,-25.81,-26.71,0,*5D
1509051937.27,21454,12.75,73758.5,-2.31,-25.81,-26.71,0,*5A
1509051938.48,21455,12.75,73766.8,-2.31,-25.87,-26.87,0,*54
1509051939.72,21456,12.75,73756.0,-2.31,-25.87,-26.97,0,*56
1509051940.99,21457,12.75,73744.5,-2.33,-26.03,-26.93,0,*5E
1509051942.25,21458,12.75,73754.5,-2.31,-25.75,-26.71,0,*5D
1509051943.47,21459,12.75,73762.3,-2.31,-25.65,-26.65,0,*58
1509051944.75,21460,12.75,73756.8,-2.33,-25.55,-26.71,0,*56
1509051946.03,21461,12.75,73760.0,-2.33,-25.29,-26.55,0,*5A
1509051947.3,21462,12.75,73760.0,-2.33,-25.03,-26.07,0,*56
1509051948.58,21463,12.75,73760.8,-2.33,-25.03,-26.29,0,*5B
1509051949.82,21464,12.75,73758.8,-2.33,-25.09,-26.23,0,*5C
1509051951.07,21465,12.75,73758.3,-2.33,-25.23,-26.29,0,*5F
1509051952.33,21466,12.75,73764.3,-2.33,-25.23,-26.55,0,*57
1509051953.57,21467,12.69,73760.8,-2.31,-25.23,-26.33,0,*54
1509051954.81,21468,12.75,73750.0,-2.31,-25.23,-26.33,0,*5B
1509051956.04,21469,12.69,73750.5,-2.31,-25.23,-26.33,0,*5A
1509051957.27,21470,12.75,73748.8,-2.31,-25.35,-26.55,0,*55
1509051958.54,21471,12.75,73748.5,-2.31,-25.55,-26.71,0,*54
1509051959.76,21472,12.75,73748.8,-2.31,-25.49,-26.65,0,*5F
1509051960.96,21473,12.75,73728.5,-2.31,-25.19,-26.49,0,*55
1509051962.2,21474,12.75,73736.0,-2.31,-25.55,-26.87,0,*58
1509051963.45,21475,12.75,73746.8,-2.31,-25.49,-26.81,0,*52
1509051964.7,21476,12.75,73748.5,-2.33,-25.45,-26.87,0,*59
1509051965.94,21477,12.69,73744.3,-2.33,-25.61,-26.87,0,*5E
1509051967.17,21478,12.75,73746.3,-2.33,-25.61,-26.87,0,*51
1509051968.43,21479,12.75,73738.0,-2.33,-25.29,-26.61,0,*54
1509051969.66,21480,12.75,73742.8,-2.31,-25.19,-26.55,0,*54
1509051970.89,21481,12.75,73738.3,-2.33,-25.23,-26.61,0,*59
1509051972.17,21482,12.75,73752.3,-2.33,-25.29,-26.77,0,*57
1509051973.43,21483,12.75,73758.8,-2.33,-25.39,-26.71,0,*51
1509051974.72,21484,12.75,73760.0,-2.33,-25.29,-26.77,0,*51
1509051975.93,21485,12.75,73756.0,-2.31,-25.13,-26.39,0,*51
1509051977.14,21486,12.75,73752.0,-2.31,-25.13,-26.49,0,*55
1509051978.4,21487,12.75,73740.3,-2.33,-25.23,-26.71,0,*5E
1509051979.61,21488,12.75,73744.3,-2.31,-25.23,-26.65,0,*56
1509051980.89,21489,12.75,73748.5,-2.33,-25.45,-26.77,0,*56
1509051982.1,21490,12.75,73754.5,-2.31,-25.19,-26.39,0,*5F
1509051983.38,21491,12.75,73758.3,-2.33,-24.41,-25.61,0,*5E
1509051984.62,21492,12.75,73742.0,-2.31,-24.57,-25.97,0,*51
1509051985.89,21493,12.75,73742.8,-2.31,-25.55,-26.71,0,*58
1509051987.09,21494,12.75,73738.5,-2.31,-25.19,-26.49,0,*5C
1509051988.33,21495,12.75,73736.5,-2.31,-25.65,-26.97,0,*55
1509051989.62,21496,12.75,73728.8,-2.29,-25.71,-27.19,0,*5D
1509051990.91,21497,12.75,73726.0,-2.29,-25.71,-27.19,0,*5C
1509051992.19,21498,12.75,73724.8,-2.29,-25.81,-27.19,0,*5C
1509051993.45,21499,12.75,73720.5,-2.33,-25.91,-27.35,0,*59
1509051994.67,21500,12.75,73718.3,-2.31,-25.87,-27.29,0,*50
1509051995.89,21501,12.75,73712.3,-2.31,-25.87,-27.29,0,*51
1509051997.16,21502,12.75,73728.8,-2.31,-25.81,-27.35,0,*59
1509051998.4,21503,12.75,73744.3,-2.31,-25.97,-27.29,0,*52
1509051999.66,21504,12.75,73746.5,-2.33,-25.91,-27.39,0,*50
1509052000.93,21505,12.69,73750.5,-2.33,-26.03,-27.35,0,*55
1509052002.17,21506,12.75,73750.3,-2.31,-25.81,-27.29,0,*50
1509052003.44,21507,12.75,73748.0,-2.33,-25.87,-27.35,0,*58
1509052004.7,21508,12.75,73756.3,-2.33,-25.91,-27.35,0,*50
1509052005.93,21509,12.75,73750.0,-2.35,-25.61,-27.19,0,*56
1509052007.19,21510,12.75,73742.8,-2.35,-25.75,-27.19,0,*5B
1509052008.45,21511,12.75,73746.8,-2.37,-26.07,-27.45,0,*57
1509052009.72,21512,12.75,73750.0,-2.37,-25.81,-27.29,0,*53
1509052010.98,21513,12.75,73746.8,-2.35,-25.75,-27.23,0,*51
1509052012.22,21514,12.69,73748.5,-2.35,-25.75,-27.03,0,*54
1509052013.51,21515,12.75,73756.5,-2.37,-25.81,-26.97,0,*50
1509052014.78,21516,12.75,73754.8,-2.35,-24.41,-25.71,0,*57
1509052016.05,21517,12.69,73750.3,-2.35,-24.15,-25.55,0,*51
1509052017.26,21518,12.75,73740.8,-2.35,-24.05,-25.39,0,*55
1509052018.47,21519,12.75,73730.3,-2.31,-23.89,-25.19,0,*51
1509052019.71,21520,12.75,73730.0,-2.31,-23.23,-24.57,0,*50
1509052021.0,21521,12.75,73738.8,-2.29,-23.53,-24.87,0,*52
1509052022.22,21522,12.69,73746.8,-2.27,-24.05,-25.49,0,*58
1509052023.43,21523,12.75,73754.3,-2.27,-24.51,-25.91,0,*5D
1509052024.67,21524,12.69,73748.3,-2.27,-24.83,-26.07,0,*59
1509052025.92,21525,12.69,73744.3,-2.23,-24.83,-26.07,0,*5C
1509052027.18,21526,12.75,73744.5,-2.23,-24.83,-26.17,0,*5E
1509052028.42,21527,12.75,73748.8,-2.23,-25.09,-26.33,0,*5A
1509052029.69,21528,12.75,73730.5,-2.21,-25.45,-26.71,0,*59
1509052030.92,21529,12.75,73724.0,-2.23,-25.45,-26.61,0,*5B
1509052032.12,21530,12.69,73730.3,-2.23,-25.19,-26.45,0,*5C
1509052033.36,21531,12.75,73738.0,-2.23,-25.19,-26.29,0,*57
1509052034.61,21532,12.75,73748.5,-2.21,-25.45,-26.61,0,*53
1509052035.9,21533,12.75,73742.8,-2.21,-25.71,-26.77,0,*52
1509052037.15,21534,12.75,73736.8,-2.21,-25.61,-26.71,0,*52
1509052038.4,21535,12.75,73740.5,-2.23,-25.49,-26.81,0,*54
1509052039.66,21536,12.75,73744.8,-2.23,-25.29,-26.33,0,*58
1509052040.89,21537,12.75,73736.3,-2.21,-25.13,-26.23,0,*53
1509052042.17,21538,12.75,73746.3,-2.21,-24.87,-25.75,0,*50
1509052043.41,21539,12.75,73728.3,-2.19,-24.25,-25.23,0,*51
1509052044.63,21540,12.75,73744.3,-2.19,-24.57,-25.61,0,*5C
1509052045.88,21541,12.75,73734.3,-2.17,-24.97,-25.97,0,*56
1509052047.1,21542,12.75,73730.3,-2.17,-25.19,-26.23,0,*5E
1509052048.33,21543,12.75,73742.8,-2.17,-25.35,-26.39,0,*5A
1509052049.57,21544,12.75,73746.3,-2.17,-25.39,-26.39,0,*51
1509052050.82,21545,12.75,73738.5,-2.19,-25.55,-26.55,0,*5E
1509052052.05,21546,12.75,73728.8,-2.17,-25.65,-26.49,0,*5D
1509052053.28,21547,12.75,73714.3,-2.17,-25.87,-26.87,0,*52
1509052054.54,21548,12.75,73730.0,-2.17,-25.97,-27.03,0,*51
1509052055.79,21549,12.75,73728.0,-2.17,-25.97,-27.13,0,*51
1509052057.02,21550,12.75,73734.5,-2.19,-26.07,-27.19,0,*57
1509052058.28,21551,12.75,73742.0,-2.17,-26.03,-27.19,0,*5C
1509052059.51,21552,12.75,73742.8,-2.17,-26.07,-27.13,0,*51
1509052060.77,21553,12.75,73746.8,-2.19,-26.13,-27.39,0,*53
1509052062.02,21554,12.75,73754.8,-2.19,-26.13,-27.23,0,*5F
1509052063.23,21555,12.75,73760.0,-2.19,-26.07,-27.07,0,*5D
1509052064.49,21556,12.69,73740.3,-2.21,-25.87,-26.77,0,*58
1509052065.74,21557,12.75,73742.3,-2.21,-25.61,-26.71,0,*57
1509052067.01,21558,12.75,73742.5,-2.21,-25.55,-26.45,0,*58
1509052068.28,21559,12.75,73734.5,-2.21,-25.45,-26.55,0,*59
1509052069.54,21560,12.75,73728.8,-2.21,-25.75,-26.87,0,*5F
1509052070.78,21561,12.75,73728.0,-2.21,-26.03,-27.03,0,*51
1509052072.07,21562,12.75,73730.0,-2.21,-26.13,-27.19,0,*58
1509052073.35,21563,12.75,73718.5,-2.21,-26.29,-27.23,0,*59
1509052074.64,21564,12.75,73700.5,-2.21,-26.29,-27.23,0,*5E
1509052075.87,21565,12.75,73712.3,-2.23,-26.45,-27.35,0,*50
1509052077.09,21566,12.75,73722.3,-2.23,-26.45,-27.29,0,*5E
1509052078.3,21567,12.75,73740.8,-2.23,-26.45,-27.29,0,*5F
1509052079.54,21568,12.75,73756.3,-2.23,-26.29,-27.29,0,*5A
1509052080.8,21569,12.75,73748.5,-2.23,-26.13,-26.93,0,*52
1509052082.04,21570,12.75,73742.0,-2.23,-26.13,-27.13,0,*53
1509052083.28,21571,12.75,73738.5,-2.23,-26.13,-27.29,0,*5B
1509052084.54,21572,12.75,73734.3,-2.23,-26.33,-27.23,0,*50
1509052085.79,21573,12.75,73736.3,-2.23,-26.33,-27.29,0,*5B
1509052087.03,21574,12.75,73746.8,-2.23,-26.45,-27.35,0,*50
1509052088.26,21575,12.75,73764.0,-2.23,-26.45,-27.23,0,*56
1509052089.5,21576,12.75,73766.3,-2.27,-26.07,-26.81,0,*5E
1509052090.73,21577,12.75,73758.0,-2.27,-25.91,-26.77,0,*5A
1509052091.97,21578,12.75,73752.3,-2.27,-25.91,-26.97,0,*5B
1509052093.21,21579,12.75,73740.0,-2.27,-26.07,-26.81,0,*51
1509052094.44,21580,12.75,73744.0,-2.27,-26.07,-26.81,0,*57
1509052095.7,21581,12.75,73738.5,-2.27,-26.13,-26.93,0,*50
1509052096.94,21582,12.75,73732.8,-2.27,-26.07,-26.97,0,*52
1509052098.18,21583,12.75,73728.8,-2.27,-26.13,-27.07,0,*5E